Year,Month,Day,Hour,Minute,Value (Times are PST for windspeed in km/hr)
2018,01,20,00,00,5.00
2018,01,20,00,01,1.70
2018,01,20,00,02,1.70
2018,01,20,00,03,1.80
2018,01,20,00,04,0.80
2018,01,20,00,05,4.60
2018,01,20,00,06,0.40
2018,01,20,00,07,0.00
2018,01,20,00,08,0.00
2018,01,20,00,09,0.10
2018,01,20,00,10,0.80
2018,01,20,00,11,1.70
2018,01,20,00,12,0.40
2018,01,20,00,13,0.00
2018,01,20,00,14,0.00
2018,01,20,00,15,2.70
2018,01,20,00,16,4.00
2018,01,20,00,17,4.10
2018,01,20,00,18,7.80
2018,01,20,00,19,5.80
2018,01,20,00,20,8.00
2018,01,20,00,21,5.20
2018,01,20,00,22,3.20
2018,01,20,00,23,3.60
2018,01,20,00,24,3.80
2018,01,20,00,25,2.50
2018,01,20,00,26,2.90
2018,01,20,00,27,1.20
2018,01,20,00,28,2.40
2018,01,20,00,29,2.90
2018,01,20,00,30,4.20
2018,01,20,00,31,3.00
2018,01,20,00,32,2.20
2018,01,20,00,33,0.20
2018,01,20,00,34,0.30
2018,01,20,00,35,4.40
2018,01,20,00,36,4.00
2018,01,20,00,37,3.10
2018,01,20,00,38,3.90
2018,01,20,00,39,3.20
2018,01,20,00,40,3.00
2018,01,20,00,41,6.00
2018,01,20,00,42,5.70
2018,01,20,00,43,5.60
2018,01,20,00,44,6.30
2018,01,20,00,45,3.00
2018,01,20,00,46,2.60
2018,01,20,00,47,3.80
2018,01,20,00,48,4.70
2018,01,20,00,49,2.70
2018,01,20,00,50,4.70
2018,01,20,00,51,3.50
2018,01,20,00,52,2.90
2018,01,20,00,53,2.30
2018,01,20,00,54,2.50
2018,01,20,00,55,4.20
2018,01,20,00,56,5.00
2018,01,20,00,57,7.30
2018,01,20,00,58,7.70
2018,01,20,00,59,5.60
2018,01,20,01,00,2.40
2018,01,20,01,01,3.00
2018,01,20,01,02,2.90
2018,01,20,01,03,0.60
2018,01,20,01,04,2.70
2018,01,20,01,05,2.60
2018,01,20,01,06,4.30
2018,01,20,01,07,4.20
2018,01,20,01,08,3.20
2018,01,20,01,09,2.80
2018,01,20,01,10,0.60
2018,01,20,01,11,0.00
2018,01,20,01,12,0.00
2018,01,20,01,13,0.00
2018,01,20,01,14,0.00
2018,01,20,01,15,0.00
2018,01,20,01,16,0.00
2018,01,20,01,17,0.00
2018,01,20,01,18,0.00
2018,01,20,01,19,0.00
2018,01,20,01,20,0.00
2018,01,20,01,21,0.00
2018,01,20,01,22,0.00
2018,01,20,01,23,0.00
2018,01,20,01,24,0.00
2018,01,20,01,25,0.00
2018,01,20,01,26,0.20
2018,01,20,01,27,2.90
2018,01,20,01,28,3.70
2018,01,20,01,29,3.10
2018,01,20,01,30,2.00
2018,01,20,01,31,0.20
2018,01,20,01,32,2.90
2018,01,20,01,33,1.20
2018,01,20,01,34,0.00
2018,01,20,01,35,0.00
2018,01,20,01,36,0.00
2018,01,20,01,37,0.00
2018,01,20,01,38,0.00
2018,01,20,01,39,0.00
2018,01,20,01,40,0.00
2018,01,20,01,41,0.00
2018,01,20,01,42,0.00
2018,01,20,01,43,0.00
2018,01,20,01,44,0.00
2018,01,20,01,45,0.00
2018,01,20,01,46,0.00
2018,01,20,01,47,0.00
2018,01,20,01,48,0.00
2018,01,20,01,49,0.00
2018,01,20,01,50,0.00
2018,01,20,01,51,0.00
2018,01,20,01,52,0.00
2018,01,20,01,53,0.00
2018,01,20,01,54,0.00
2018,01,20,01,55,3.10
2018,01,20,01,56,4.50
2018,01,20,01,57,3.40
2018,01,20,01,58,2.00
2018,01,20,01,59,0.60
2018,01,20,02,00,0.00
2018,01,20,02,01,0.00
2018,01,20,02,02,0.00
2018,01,20,02,03,0.30
2018,01,20,02,04,4.70
2018,01,20,02,05,4.40
2018,01,20,02,06,6.40
2018,01,20,02,07,4.10
2018,01,20,02,08,2.30
2018,01,20,02,09,3.00
2018,01,20,02,10,2.60
2018,01,20,02,11,2.00
2018,01,20,02,12,3.20
2018,01,20,02,13,1.00
2018,01,20,02,14,0.90
2018,01,20,02,15,1.00
2018,01,20,02,16,1.90
2018,01,20,02,17,1.80
2018,01,20,02,18,2.30
2018,01,20,02,19,0.20
2018,01,20,02,20,0.00
2018,01,20,02,21,0.00
2018,01,20,02,22,0.00
2018,01,20,02,23,0.00
2018,01,20,02,24,0.00
2018,01,20,02,25,0.00
2018,01,20,02,26,0.00
2018,01,20,02,27,0.30
2018,01,20,02,28,3.00
2018,01,20,02,29,2.50
2018,01,20,02,30,3.00
2018,01,20,02,31,1.30
2018,01,20,02,32,1.90
2018,01,20,02,33,0.30
2018,01,20,02,34,0.00
2018,01,20,02,35,0.10
2018,01,20,02,36,0.00
2018,01,20,02,37,0.80
2018,01,20,02,38,2.90
2018,01,20,02,39,4.70
2018,01,20,02,40,3.10
2018,01,20,02,41,1.30
2018,01,20,02,42,0.00
2018,01,20,02,43,0.00
2018,01,20,02,44,0.40
2018,01,20,02,45,1.40
2018,01,20,02,46,1.90
2018,01,20,02,47,1.40
2018,01,20,02,48,3.80
2018,01,20,02,49,5.20
2018,01,20,02,50,4.40
2018,01,20,02,51,2.00
2018,01,20,02,52,2.20
2018,01,20,02,53,1.10
2018,01,20,02,54,0.30
2018,01,20,02,55,0.00
2018,01,20,02,56,0.00
2018,01,20,02,57,0.00
2018,01,20,02,58,0.00
2018,01,20,02,59,0.00
2018,01,20,03,00,0.00
2018,01,20,03,01,0.30
2018,01,20,03,02,2.30
2018,01,20,03,03,2.90
2018,01,20,03,04,2.60
2018,01,20,03,05,3.90
2018,01,20,03,06,3.00
2018,01,20,03,07,1.90
2018,01,20,03,08,0.90
2018,01,20,03,09,1.50
2018,01,20,03,10,1.30
2018,01,20,03,11,1.00
2018,01,20,03,12,1.90
2018,01,20,03,13,3.20
2018,01,20,03,14,2.70
2018,01,20,03,15,4.00
2018,01,20,03,16,4.70
2018,01,20,03,17,2.60
2018,01,20,03,18,4.30
2018,01,20,03,19,4.80
2018,01,20,03,20,2.70
2018,01,20,03,21,2.80
2018,01,20,03,22,2.10
2018,01,20,03,23,2.70
2018,01,20,03,24,2.30
2018,01,20,03,25,0.10
2018,01,20,03,26,0.80
2018,01,20,03,27,1.10
2018,01,20,03,28,0.60
2018,01,20,03,29,0.00
2018,01,20,03,30,0.00
2018,01,20,03,31,0.00
2018,01,20,03,32,0.00
2018,01,20,03,33,0.00
2018,01,20,03,34,0.20
2018,01,20,03,35,0.90
2018,01,20,03,36,1.50
2018,01,20,03,37,0.80
2018,01,20,03,38,0.70
2018,01,20,03,39,2.70
2018,01,20,03,40,3.10
2018,01,20,03,41,3.00
2018,01,20,03,42,1.60
2018,01,20,03,43,0.20
2018,01,20,03,44,1.30
2018,01,20,03,45,2.30
2018,01,20,03,46,4.50
2018,01,20,03,47,5.10
2018,01,20,03,48,2.90
2018,01,20,03,49,1.90
2018,01,20,03,50,1.40
2018,01,20,03,51,2.20
2018,01,20,03,52,1.30
2018,01,20,03,53,2.20
2018,01,20,03,54,1.00
2018,01,20,03,55,0.00
2018,01,20,03,56,0.60
2018,01,20,03,57,0.80
2018,01,20,03,58,1.00
2018,01,20,03,59,0.40
2018,01,20,04,00,1.40
2018,01,20,04,01,3.70
2018,01,20,04,02,2.50
2018,01,20,04,03,3.00
2018,01,20,04,04,1.20
2018,01,20,04,05,0.10
2018,01,20,04,06,0.00
2018,01,20,04,07,0.10
2018,01,20,04,08,0.10
2018,01,20,04,09,0.00
2018,01,20,04,10,0.00
2018,01,20,04,11,1.40
2018,01,20,04,12,2.20
2018,01,20,04,13,0.20
2018,01,20,04,14,0.30
2018,01,20,04,15,2.70
2018,01,20,04,16,0.50
2018,01,20,04,17,3.50
2018,01,20,04,18,3.80
2018,01,20,04,19,1.80
2018,01,20,04,20,1.90
2018,01,20,04,21,1.60
2018,01,20,04,22,1.60
2018,01,20,04,23,1.60
2018,01,20,04,24,1.60
2018,01,20,04,25,1.80
2018,01,20,04,26,2.40
2018,01,20,04,27,0.40
2018,01,20,04,28,3.00
2018,01,20,04,29,4.20
2018,01,20,04,30,7.70
2018,01,20,04,31,8.90
2018,01,20,04,32,3.40
2018,01,20,04,33,3.30
2018,01,20,04,34,0.40
2018,01,20,04,35,2.70
2018,01,20,04,36,3.60
2018,01,20,04,37,6.30
2018,01,20,04,38,3.50
2018,01,20,04,39,3.60
2018,01,20,04,40,0.00
2018,01,20,04,41,0.00
2018,01,20,04,42,0.00
2018,01,20,04,43,0.00
2018,01,20,04,44,1.00
2018,01,20,04,45,0.60
2018,01,20,04,46,7.60
2018,01,20,04,47,3.20
2018,01,20,04,48,2.30
2018,01,20,04,49,4.70
2018,01,20,04,50,5.80
2018,01,20,04,51,8.00
2018,01,20,04,52,5.60
2018,01,20,04,53,7.50
2018,01,20,04,54,8.30
2018,01,20,04,55,4.90
2018,01,20,04,56,7.30
2018,01,20,04,57,8.30
2018,01,20,04,58,7.30
2018,01,20,04,59,9.70
2018,01,20,05,00,8.10
2018,01,20,05,01,8.50
2018,01,20,05,02,7.40
2018,01,20,05,03,8.90
2018,01,20,05,04,8.30
2018,01,20,05,05,6.50
2018,01,20,05,06,7.90
2018,01,20,05,07,6.50
2018,01,20,05,08,7.30
2018,01,20,05,09,7.90
2018,01,20,05,10,7.80
2018,01,20,05,11,8.10
2018,01,20,05,12,5.70
2018,01,20,05,13,8.60
2018,01,20,05,14,5.80
2018,01,20,05,15,7.10
2018,01,20,05,16,6.00
2018,01,20,05,17,7.60
2018,01,20,05,18,9.30
2018,01,20,05,19,4.40
2018,01,20,05,20,8.30
2018,01,20,05,21,8.20
2018,01,20,05,22,10.10
2018,01,20,05,23,9.10
2018,01,20,05,24,7.10
2018,01,20,05,25,10.40
2018,01,20,05,26,8.20
2018,01,20,05,27,7.10
2018,01,20,05,28,11.60
2018,01,20,05,29,7.50
2018,01,20,05,30,4.90
2018,01,20,05,31,6.10
2018,01,20,05,32,4.70
2018,01,20,05,33,6.20
2018,01,20,05,34,6.00
2018,01,20,05,35,5.10
2018,01,20,05,36,5.70
2018,01,20,05,37,4.80
2018,01,20,05,38,2.30
2018,01,20,05,39,3.00
2018,01,20,05,40,6.10
2018,01,20,05,41,5.20
2018,01,20,05,42,4.30
2018,01,20,05,43,1.90
2018,01,20,05,44,3.10
2018,01,20,05,45,4.30
2018,01,20,05,46,4.40
2018,01,20,05,47,1.40
2018,01,20,05,48,3.90
2018,01,20,05,49,4.10
2018,01,20,05,50,6.40
2018,01,20,05,51,6.20
2018,01,20,05,52,7.30
2018,01,20,05,53,1.60
2018,01,20,05,54,0.80
2018,01,20,05,55,4.30
2018,01,20,05,56,1.70
2018,01,20,05,57,2.40
2018,01,20,05,58,1.30
2018,01,20,05,59,2.30
2018,01,20,06,00,2.70
2018,01,20,06,01,0.40
2018,01,20,06,02,1.80
2018,01,20,06,03,1.90
2018,01,20,06,04,3.20
2018,01,20,06,05,7.20
2018,01,20,06,06,5.80
2018,01,20,06,07,3.30
2018,01,20,06,08,1.70
2018,01,20,06,09,1.00
2018,01,20,06,10,1.40
2018,01,20,06,11,1.90
2018,01,20,06,12,2.20
2018,01,20,06,13,2.50
2018,01,20,06,14,0.10
2018,01,20,06,15,0.40
2018,01,20,06,16,0.00
2018,01,20,06,17,0.50
2018,01,20,06,18,2.90
2018,01,20,06,19,2.70
2018,01,20,06,20,1.40
2018,01,20,06,21,0.80
2018,01,20,06,22,1.80
2018,01,20,06,23,2.70
2018,01,20,06,24,3.80
2018,01,20,06,25,3.40
2018,01,20,06,26,3.60
2018,01,20,06,27,4.10
2018,01,20,06,28,4.20
2018,01,20,06,29,4.80
2018,01,20,06,30,4.20
2018,01,20,06,31,5.00
2018,01,20,06,32,3.50
2018,01,20,06,33,4.70
2018,01,20,06,34,5.00
2018,01,20,06,35,4.60
2018,01,20,06,36,3.70
2018,01,20,06,37,3.50
2018,01,20,06,38,1.50
2018,01,20,06,39,3.40
2018,01,20,06,40,4.30
2018,01,20,06,41,6.10
2018,01,20,06,42,7.80
2018,01,20,06,43,8.10
2018,01,20,06,44,6.60
2018,01,20,06,45,6.20
2018,01,20,06,46,4.70
2018,01,20,06,47,3.30
2018,01,20,06,48,5.00
2018,01,20,06,49,1.80
2018,01,20,06,50,2.50
2018,01,20,06,51,5.00
2018,01,20,06,52,3.30
2018,01,20,06,53,4.00
2018,01,20,06,54,5.70
2018,01,20,06,55,3.10
2018,01,20,06,56,3.60
2018,01,20,06,57,2.70
2018,01,20,06,58,4.80
2018,01,20,06,59,5.40
2018,01,20,07,00,6.40
2018,01,20,07,01,6.10
2018,01,20,07,02,3.00
2018,01,20,07,03,2.10
2018,01,20,07,04,2.30
2018,01,20,07,05,2.10
2018,01,20,07,06,2.00
2018,01,20,07,07,1.50
2018,01,20,07,08,0.90
2018,01,20,07,09,3.50
2018,01,20,07,10,1.90
2018,01,20,07,11,2.40
2018,01,20,07,12,1.70
2018,01,20,07,13,4.30
2018,01,20,07,14,2.50
2018,01,20,07,15,1.80
2018,01,20,07,16,1.20
2018,01,20,07,17,5.80
2018,01,20,07,18,2.00
2018,01,20,07,19,2.00
2018,01,20,07,20,3.00
2018,01,20,07,21,2.60
2018,01,20,07,22,1.10
2018,01,20,07,23,4.30
2018,01,20,07,24,6.80
2018,01,20,07,25,6.10
2018,01,20,07,26,2.80
2018,01,20,07,27,3.00
2018,01,20,07,28,4.10
2018,01,20,07,29,3.00
2018,01,20,07,30,1.40
2018,01,20,07,31,1.50
2018,01,20,07,32,7.10
2018,01,20,07,33,2.70
2018,01,20,07,34,3.40
2018,01,20,07,35,2.20
2018,01,20,07,36,1.00
2018,01,20,07,37,6.50
2018,01,20,07,38,6.40
2018,01,20,07,39,8.10
2018,01,20,07,40,7.60
2018,01,20,07,41,5.50
2018,01,20,07,42,6.60
2018,01,20,07,43,2.10
2018,01,20,07,44,0.60
2018,01,20,07,45,4.00
2018,01,20,07,46,4.40
2018,01,20,07,47,5.00
2018,01,20,07,48,5.10
2018,01,20,07,49,4.90
2018,01,20,07,50,7.20
2018,01,20,07,51,5.10
2018,01,20,07,52,2.50
2018,01,20,07,53,4.00
2018,01,20,07,54,5.20
2018,01,20,07,55,7.10
2018,01,20,07,56,3.20
2018,01,20,07,57,4.40
2018,01,20,07,58,2.30
2018,01,20,07,59,4.30
2018,01,20,08,00,5.10
2018,01,20,08,01,3.60
2018,01,20,08,02,5.00
2018,01,20,08,03,6.50
2018,01,20,08,04,4.80
2018,01,20,08,05,6.10
2018,01,20,08,06,4.50
2018,01,20,08,07,2.70
2018,01,20,08,08,8.10
2018,01,20,08,09,6.70
2018,01,20,08,10,7.60
2018,01,20,08,11,7.50
2018,01,20,08,12,6.70
2018,01,20,08,13,3.10
2018,01,20,08,14,6.10
2018,01,20,08,15,6.60
2018,01,20,08,16,7.90
2018,01,20,08,17,6.50
2018,01,20,08,18,6.80
2018,01,20,08,19,4.20
2018,01,20,08,20,3.60
2018,01,20,08,21,5.10
2018,01,20,08,22,5.80
2018,01,20,08,23,3.30
2018,01,20,08,24,7.00
2018,01,20,08,25,8.30
2018,01,20,08,26,6.40
2018,01,20,08,27,5.80
2018,01,20,08,28,7.10
2018,01,20,08,29,5.40
2018,01,20,08,30,6.40
2018,01,20,08,31,3.10
2018,01,20,08,32,7.30
2018,01,20,08,33,10.50
2018,01,20,08,34,10.90
2018,01,20,08,35,7.10
2018,01,20,08,36,5.90
2018,01,20,08,37,3.80
2018,01,20,08,38,4.50
2018,01,20,08,39,1.10
2018,01,20,08,40,2.90
2018,01,20,08,41,4.20
2018,01,20,08,42,3.10
2018,01,20,08,43,5.30
2018,01,20,08,44,4.30
2018,01,20,08,45,3.20
2018,01,20,08,46,3.40
2018,01,20,08,47,3.50
2018,01,20,08,48,3.50
2018,01,20,08,49,0.60
2018,01,20,08,50,0.20
2018,01,20,08,51,2.30
2018,01,20,08,52,5.80
2018,01,20,08,53,5.70
2018,01,20,08,54,4.40
2018,01,20,08,55,2.40
2018,01,20,08,56,1.80
2018,01,20,08,57,4.30
2018,01,20,08,58,2.40
2018,01,20,08,59,0.80
2018,01,20,09,00,4.80
2018,01,20,09,01,7.70
2018,01,20,09,02,5.40
2018,01,20,09,03,8.00
2018,01,20,09,04,7.60
2018,01,20,09,05,6.50
2018,01,20,09,06,10.90
2018,01,20,09,07,10.50
2018,01,20,09,08,5.80
2018,01,20,09,09,3.80
2018,01,20,09,10,7.10
2018,01,20,09,11,7.30
2018,01,20,09,12,5.20
2018,01,20,09,13,5.80
2018,01,20,09,14,5.30
2018,01,20,09,15,5.40
2018,01,20,09,16,4.20
2018,01,20,09,17,3.90
2018,01,20,09,18,3.00
2018,01,20,09,19,2.30
2018,01,20,09,20,0.40
2018,01,20,09,21,0.10
2018,01,20,09,22,0.00
2018,01,20,09,23,0.00
2018,01,20,09,24,0.60
2018,01,20,09,25,0.20
2018,01,20,09,26,1.10
2018,01,20,09,27,2.90
2018,01,20,09,28,3.00
2018,01,20,09,29,1.80
2018,01,20,09,30,2.10
2018,01,20,09,31,5.80
2018,01,20,09,32,3.60
2018,01,20,09,33,1.40
2018,01,20,09,34,1.70
2018,01,20,09,35,2.10
2018,01,20,09,36,2.30
2018,01,20,09,37,6.20
2018,01,20,09,38,8.50
2018,01,20,09,39,8.50
2018,01,20,09,40,6.60
2018,01,20,09,41,6.00
2018,01,20,09,42,7.60
2018,01,20,09,43,9.90
2018,01,20,09,44,8.00
2018,01,20,09,45,8.80
2018,01,20,09,46,4.90
2018,01,20,09,47,5.50
2018,01,20,09,48,6.20
2018,01,20,09,49,8.00
2018,01,20,09,50,6.40
2018,01,20,09,51,5.60
2018,01,20,09,52,7.60
2018,01,20,09,53,5.90
2018,01,20,09,54,5.60
2018,01,20,09,55,6.80
2018,01,20,09,56,5.70
2018,01,20,09,57,5.80
2018,01,20,09,58,6.80
2018,01,20,09,59,5.60
2018,01,20,10,00,7.00
2018,01,20,10,01,4.90
2018,01,20,10,02,3.10
2018,01,20,10,03,6.50
2018,01,20,10,04,5.70
2018,01,20,10,05,4.00
2018,01,20,10,06,5.90
2018,01,20,10,07,7.90
2018,01,20,10,08,6.30
2018,01,20,10,09,5.60
2018,01,20,10,10,7.20
2018,01,20,10,11,4.50
2018,01,20,10,12,7.40
2018,01,20,10,13,9.60
2018,01,20,10,14,8.80
2018,01,20,10,15,4.40
2018,01,20,10,16,3.50
2018,01,20,10,17,5.30
2018,01,20,10,18,3.60
2018,01,20,10,19,7.00
2018,01,20,10,20,6.00
2018,01,20,10,21,4.10
2018,01,20,10,22,2.10
2018,01,20,10,23,4.50
2018,01,20,10,24,3.60
2018,01,20,10,25,3.70
2018,01,20,10,26,6.40
2018,01,20,10,27,4.50
2018,01,20,10,28,5.70
2018,01,20,10,29,6.40
2018,01,20,10,30,5.40
2018,01,20,10,31,7.40
2018,01,20,10,32,5.70
2018,01,20,10,33,8.70
2018,01,20,10,34,5.90
2018,01,20,10,35,7.60
2018,01,20,10,36,8.70
2018,01,20,10,37,6.70
2018,01,20,10,38,6.60
2018,01,20,10,39,6.50
2018,01,20,10,40,4.20
2018,01,20,10,41,6.10
2018,01,20,10,42,6.40
2018,01,20,10,43,5.20
2018,01,20,10,44,6.60
2018,01,20,10,45,8.80
2018,01,20,10,46,6.70
2018,01,20,10,47,7.50
2018,01,20,10,48,1.50
2018,01,20,10,49,5.80
2018,01,20,10,50,3.70
2018,01,20,10,51,2.60
2018,01,20,10,52,4.80
2018,01,20,10,53,4.20
2018,01,20,10,54,7.60
2018,01,20,10,55,7.00
2018,01,20,10,56,7.70
2018,01,20,10,57,10.20
2018,01,20,10,58,6.70
2018,01,20,10,59,9.70
2018,01,20,11,00,11.60
2018,01,20,11,01,11.40
2018,01,20,11,02,5.30
2018,01,20,11,03,5.90
2018,01,20,11,04,7.20
2018,01,20,11,05,12.30
2018,01,20,11,06,11.40
2018,01,20,11,07,9.90
2018,01,20,11,08,7.40
2018,01,20,11,09,10.10
2018,01,20,11,10,9.50
2018,01,20,11,11,13.60
2018,01,20,11,12,11.50
2018,01,20,11,13,13.20
2018,01,20,11,14,10.90
2018,01,20,11,15,8.80
2018,01,20,11,16,12.60
2018,01,20,11,17,13.00
2018,01,20,11,18,14.10
2018,01,20,11,19,7.00
2018,01,20,11,20,8.70
2018,01,20,11,21,7.10
2018,01,20,11,22,6.00
2018,01,20,11,23,9.20
2018,01,20,11,24,10.40
2018,01,20,11,25,6.40
2018,01,20,11,26,8.60
2018,01,20,11,27,8.40
2018,01,20,11,28,12.90
2018,01,20,11,29,12.50
2018,01,20,11,30,11.80
2018,01,20,11,31,11.70
2018,01,20,11,32,15.70
2018,01,20,11,33,14.00
2018,01,20,11,34,15.50
2018,01,20,11,35,18.50
2018,01,20,11,36,18.20
2018,01,20,11,37,15.60
2018,01,20,11,38,17.10
2018,01,20,11,39,14.40
2018,01,20,11,40,14.30
2018,01,20,11,41,12.40
2018,01,20,11,42,12.00
2018,01,20,11,43,13.80
2018,01,20,11,44,15.30
2018,01,20,11,45,9.70
2018,01,20,11,46,11.90
2018,01,20,11,47,9.50
2018,01,20,11,48,8.10
2018,01,20,11,49,3.10
2018,01,20,11,50,9.40
2018,01,20,11,51,12.80
2018,01,20,11,52,14.20
2018,01,20,11,53,13.00
2018,01,20,11,54,8.70
2018,01,20,11,55,8.30
2018,01,20,11,56,12.50
2018,01,20,11,57,16.30
2018,01,20,11,58,15.20
2018,01,20,11,59,13.40
2018,01,20,12,00,14.00
2018,01,20,12,01,18.20
2018,01,20,12,02,13.70
2018,01,20,12,03,10.10
2018,01,20,12,04,11.30
2018,01,20,12,05,13.20
2018,01,20,12,06,15.60
2018,01,20,12,07,12.40
2018,01,20,12,08,21.60
2018,01,20,12,09,16.90
2018,01,20,12,10,17.40
2018,01,20,12,11,9.70
2018,01,20,12,12,11.90
2018,01,20,12,13,17.10
2018,01,20,12,14,18.40
2018,01,20,12,15,16.20
2018,01,20,12,16,11.20
2018,01,20,12,17,10.50
2018,01,20,12,18,15.70
2018,01,20,12,19,18.60
2018,01,20,12,20,16.70
2018,01,20,12,21,16.50
2018,01,20,12,22,16.40
2018,01,20,12,23,14.00
2018,01,20,12,24,22.50
2018,01,20,12,25,19.40
2018,01,20,12,26,19.40
2018,01,20,12,27,23.20
2018,01,20,12,28,20.20
2018,01,20,12,29,19.20
2018,01,20,12,30,15.30
2018,01,20,12,31,17.40
2018,01,20,12,32,17.90
2018,01,20,12,33,13.60
2018,01,20,12,34,17.50
2018,01,20,12,35,18.40
2018,01,20,12,36,19.60
2018,01,20,12,37,21.10
2018,01,20,12,38,20.20
2018,01,20,12,39,22.00
2018,01,20,12,40,15.10
2018,01,20,12,41,24.40
2018,01,20,12,42,18.60
2018,01,20,12,43,25.30
2018,01,20,12,44,22.20
2018,01,20,12,45,22.90
2018,01,20,12,46,18.30
2018,01,20,12,47,23.00
2018,01,20,12,48,23.30
2018,01,20,12,49,19.50
2018,01,20,12,50,11.10
2018,01,20,12,51,20.70
2018,01,20,12,52,20.90
2018,01,20,12,53,18.60
2018,01,20,12,54,17.00
2018,01,20,12,55,19.60
2018,01,20,12,56,18.20
2018,01,20,12,57,21.10
2018,01,20,12,58,16.90
2018,01,20,12,59,13.90
2018,01,20,13,00,17.70
2018,01,20,13,01,24.50
2018,01,20,13,02,18.80
2018,01,20,13,03,17.50
2018,01,20,13,04,16.30
2018,01,20,13,05,16.90
2018,01,20,13,06,27.20
2018,01,20,13,07,22.30
2018,01,20,13,08,18.60
2018,01,20,13,09,23.20
2018,01,20,13,10,19.30
2018,01,20,13,11,16.10
2018,01,20,13,12,13.80
2018,01,20,13,13,13.50
2018,01,20,13,14,14.00
2018,01,20,13,15,20.00
2018,01,20,13,16,13.70
2018,01,20,13,17,16.20
2018,01,20,13,18,20.40
2018,01,20,13,19,12.60
2018,01,20,13,20,14.90
2018,01,20,13,21,21.20
2018,01,20,13,22,16.20
2018,01,20,13,23,18.40
2018,01,20,13,24,20.50
2018,01,20,13,25,16.70
2018,01,20,13,26,13.60
2018,01,20,13,27,16.50
2018,01,20,13,28,21.00
2018,01,20,13,29,17.70
2018,01,20,13,30,14.40
2018,01,20,13,31,17.90
2018,01,20,13,32,21.40
2018,01,20,13,33,19.90
2018,01,20,13,34,18.80
2018,01,20,13,35,23.70
2018,01,20,13,36,23.40
2018,01,20,13,37,17.30
2018,01,20,13,38,20.90
2018,01,20,13,39,28.30
2018,01,20,13,40,22.10
2018,01,20,13,41,22.10
2018,01,20,13,42,19.40
2018,01,20,13,43,14.90
2018,01,20,13,44,27.00
2018,01,20,13,45,15.50
2018,01,20,13,46,17.60
2018,01,20,13,47,17.60
2018,01,20,13,48,19.60
2018,01,20,13,49,17.60
2018,01,20,13,50,17.70
2018,01,20,13,51,17.70
2018,01,20,13,52,17.90
2018,01,20,13,53,17.10
2018,01,20,13,54,13.70
2018,01,20,13,55,20.90
2018,01,20,13,56,23.80
2018,01,20,13,57,15.40
2018,01,20,13,58,9.70
2018,01,20,13,59,18.60
2018,01,20,14,00,18.50
2018,01,20,14,01,16.30
2018,01,20,14,02,17.20
2018,01,20,14,03,20.60
2018,01,20,14,04,16.30
2018,01,20,14,05,23.00
2018,01,20,14,06,19.30
2018,01,20,14,07,17.20
2018,01,20,14,08,25.10
2018,01,20,14,09,27.00
2018,01,20,14,10,32.80
2018,01,20,14,11,14.00
2018,01,20,14,12,13.60
2018,01,20,14,13,22.20
2018,01,20,14,14,24.20
2018,01,20,14,15,16.10
2018,01,20,14,16,13.40
2018,01,20,14,17,16.30
2018,01,20,14,18,24.20
2018,01,20,14,19,18.60
2018,01,20,14,20,15.00
2018,01,20,14,21,12.70
2018,01,20,14,22,24.80
2018,01,20,14,23,14.90
2018,01,20,14,24,21.80
2018,01,20,14,25,24.10
2018,01,20,14,26,19.00
2018,01,20,14,27,16.30
2018,01,20,14,28,15.70
2018,01,20,14,29,19.00
2018,01,20,14,30,18.40
2018,01,20,14,31,12.10
2018,01,20,14,32,15.60
2018,01,20,14,33,19.20
2018,01,20,14,34,12.20
2018,01,20,14,35,15.40
2018,01,20,14,36,19.20
2018,01,20,14,37,13.40
2018,01,20,14,38,16.70
2018,01,20,14,39,17.70
2018,01,20,14,40,15.90
2018,01,20,14,41,18.10
2018,01,20,14,42,10.40
2018,01,20,14,43,15.30
2018,01,20,14,44,15.90
2018,01,20,14,45,19.40
2018,01,20,14,46,16.50
2018,01,20,14,47,16.70
2018,01,20,14,48,13.20
2018,01,20,14,49,12.80
2018,01,20,14,50,13.90
2018,01,20,14,51,17.10
2018,01,20,14,52,23.40
2018,01,20,14,53,15.40
2018,01,20,14,54,19.40
2018,01,20,14,55,16.10
2018,01,20,14,56,23.70
2018,01,20,14,57,17.40
2018,01,20,14,58,15.70
2018,01,20,14,59,21.60
2018,01,20,15,00,17.50
2018,01,20,15,01,17.90
2018,01,20,15,02,25.60
2018,01,20,15,03,14.50
2018,01,20,15,04,21.50
2018,01,20,15,05,14.40
2018,01,20,15,06,14.70
2018,01,20,15,07,13.80
2018,01,20,15,08,21.50
2018,01,20,15,09,13.10
2018,01,20,15,10,13.30
2018,01,20,15,11,14.60
2018,01,20,15,12,24.20
2018,01,20,15,13,15.10
2018,01,20,15,14,23.90
2018,01,20,15,15,12.90
2018,01,20,15,16,13.90
2018,01,20,15,17,14.00
2018,01,20,15,18,11.10
2018,01,20,15,19,20.20
2018,01,20,15,20,21.40
2018,01,20,15,21,20.10
2018,01,20,15,22,22.30
2018,01,20,15,23,20.10
2018,01,20,15,24,22.10
2018,01,20,15,25,16.40
2018,01,20,15,26,20.50
2018,01,20,15,27,23.80
2018,01,20,15,28,21.30
2018,01,20,15,29,22.00
2018,01,20,15,30,19.60
2018,01,20,15,31,26.60
2018,01,20,15,32,14.80
2018,01,20,15,33,14.70
2018,01,20,15,34,16.20
2018,01,20,15,35,25.40
2018,01,20,15,36,15.90
2018,01,20,15,37,21.60
2018,01,20,15,38,22.00
2018,01,20,15,39,35.60
2018,01,20,15,40,29.20
2018,01,20,15,41,30.30
2018,01,20,15,42,23.30
2018,01,20,15,43,23.30
2018,01,20,15,44,18.40
2018,01,20,15,45,30.20
2018,01,20,15,46,30.30
2018,01,20,15,47,30.90
2018,01,20,15,48,25.10
2018,01,20,15,49,18.70
2018,01,20,15,50,24.20
2018,01,20,15,51,22.20
2018,01,20,15,52,17.90
2018,01,20,15,53,22.00
2018,01,20,15,54,20.30
2018,01,20,15,55,23.40
2018,01,20,15,56,20.40
2018,01,20,15,57,28.50
2018,01,20,15,58,29.60
2018,01,20,15,59,26.20
2018,01,20,16,00,24.10
2018,01,20,16,01,19.80
2018,01,20,16,02,26.20
2018,01,20,16,03,14.90
2018,01,20,16,04,21.60
2018,01,20,16,05,28.10
2018,01,20,16,06,19.80
2018,01,20,16,07,27.20
2018,01,20,16,08,29.10
2018,01,20,16,09,24.20
2018,01,20,16,10,25.30
2018,01,20,16,11,22.70
2018,01,20,16,12,30.20
2018,01,20,16,13,22.70
2018,01,20,16,14,21.80
2018,01,20,16,15,21.40
2018,01,20,16,16,19.00
2018,01,20,16,17,18.90
2018,01,20,16,18,19.00
2018,01,20,16,19,24.00
2018,01,20,16,20,23.10
2018,01,20,16,21,20.00
2018,01,20,16,22,24.40
2018,01,20,16,23,20.00
2018,01,20,16,24,27.50
2018,01,20,16,25,20.30
2018,01,20,16,26,29.30
2018,01,20,16,27,23.30
2018,01,20,16,28,27.40
2018,01,20,16,29,18.50
2018,01,20,16,30,26.60
2018,01,20,16,31,24.40
2018,01,20,16,32,21.90
2018,01,20,16,33,32.80
2018,01,20,16,34,25.10
2018,01,20,16,35,21.30
2018,01,20,16,36,19.80
2018,01,20,16,37,20.60
2018,01,20,16,38,20.00
2018,01,20,16,39,29.90
2018,01,20,16,40,21.00
2018,01,20,16,41,20.70
2018,01,20,16,42,18.00
2018,01,20,16,43,23.50
2018,01,20,16,44,18.60
2018,01,20,16,45,23.40
2018,01,20,16,46,23.50
2018,01,20,16,47,19.70
2018,01,20,16,48,19.10
2018,01,20,16,49,18.80
2018,01,20,16,50,22.50
2018,01,20,16,51,22.60
2018,01,20,16,52,23.60
2018,01,20,16,53,23.60
2018,01,20,16,54,20.40
2018,01,20,16,55,19.10
2018,01,20,16,56,22.00
2018,01,20,16,57,21.50
2018,01,20,16,58,23.30
2018,01,20,16,59,23.60
2018,01,20,17,00,22.40
2018,01,20,17,01,23.90
2018,01,20,17,02,23.90
2018,01,20,17,03,19.10
2018,01,20,17,04,18.20
2018,01,20,17,05,19.70
2018,01,20,17,06,26.50
2018,01,20,17,07,27.20
2018,01,20,17,08,22.50
2018,01,20,17,09,21.20
2018,01,20,17,10,24.30
2018,01,20,17,11,19.50
2018,01,20,17,12,20.80
2018,01,20,17,13,17.90
2018,01,20,17,14,18.90
2018,01,20,17,15,26.80
2018,01,20,17,16,31.20
2018,01,20,17,17,25.50
2018,01,20,17,18,20.00
2018,01,20,17,19,24.00
2018,01,20,17,20,24.20
2018,01,20,17,21,29.50
2018,01,20,17,22,32.80
2018,01,20,17,23,24.50
2018,01,20,17,24,30.00
2018,01,20,17,25,18.80
2018,01,20,17,26,20.30
2018,01,20,17,27,26.20
2018,01,20,17,28,25.80
2018,01,20,17,29,28.70
2018,01,20,17,30,23.00
2018,01,20,17,31,22.00
2018,01,20,17,32,18.60
2018,01,20,17,33,22.80
2018,01,20,17,34,22.10
2018,01,20,17,35,24.50
2018,01,20,17,36,20.80
2018,01,20,17,37,14.60
2018,01,20,17,38,19.00
2018,01,20,17,39,18.00
2018,01,20,17,40,20.60
2018,01,20,17,41,25.30
2018,01,20,17,42,23.60
2018,01,20,17,43,27.10
2018,01,20,17,44,21.70
2018,01,20,17,45,29.10
2018,01,20,17,46,15.50
2018,01,20,17,47,18.50
2018,01,20,17,48,17.80